When you browse on this site, cookies collect data to enhance your experience and personalize the content and advertising you see.
Visit our Privacy Policy to learn more. By continuing to use the site, you agree to this use of cookies and data.
  • în România
  • Lista ţărilor
  • Pe 7 zile
  • Temperatura apei
  • Hartă satelitară
  • Meteo pe hartă
  • Widget-uri
  • user-avatar
    Intrare

    Meteo pe oră la Borgarnes

    Astăzi, 26 Martie, Marţi

    Timp Temperatura Precipitaţii Vânt Presiune Umiditate
    00:00 +2°C° 0.5 mm 9 m/s 749 mmHg 95%
    01:00 +2°C° 0.5 mm 10 m/s 750 mmHg 95%
    02:00 +2°C° 0.5 mm 10 m/s 751 mmHg 95%
    03:00 +1°C° 0.2 mm 10 m/s 751 mmHg 93%
    04:00 +1°C° 0.2 mm 10 m/s 752 mmHg 91%
    05:00 +1°C° 0.2 mm 9 m/s 753 mmHg 89%
    06:00 +1°C° 0.2 mm 9 m/s 753 mmHg 86%
    07:00 0°C° 0.2 mm 9 m/s 754 mmHg 84%
    08:00 0°C° 0.2 mm 9 m/s 755 mmHg 81%
    09:00 0°C° 0.1 mm 10 m/s 755 mmHg 80%
    10:00 0°C° 0.1 mm 10 m/s 756 mmHg 78%
    11:00 0°C° 0.1 mm 10 m/s 756 mmHg 77%
    12:00 0°C° 0.1 mm 10 m/s 757 mmHg 76%
    13:00 -1°C° 0.1 mm 9 m/s 757 mmHg 75%
    14:00 -1°C° 0.1 mm 9 m/s 757 mmHg 74%
    15:00 -1°C° 0.1 mm 9 m/s 757 mmHg 75%
    16:00 -1°C° 0.1 mm 8 m/s 757 mmHg 75%
    17:00 -1°C° 0.1 mm 8 m/s 757 mmHg 76%
    18:00 -1°C° 0.1 mm 8 m/s 757 mmHg 77%
    19:00 -2°C° 0.1 mm 7 m/s 757 mmHg 79%
    20:00 -2°C° 0.1 mm 7 m/s 757 mmHg 81%
    21:00 -2°C° 0.2 mm 7 m/s 756 mmHg 82%
    22:00 -1°C° 0.2 mm 7 m/s 755 mmHg 83%
    23:00 -1°C° 0.2 mm 8 m/s 755 mmHg 84%

    Mâine, 27 Martie, Miercuri

    Timp Temperatura Precipitaţii Vânt Presiune Umiditate
    00:00 -1°C° 0.6 mm 9 m/s 753 mmHg 86%
    01:00 -1°C° 0.6 mm 11 m/s 752 mmHg 87%
    02:00 0°C° 0.6 mm 12 m/s 750 mmHg 89%
    03:00 0°C° 0.9 mm 12 m/s 749 mmHg 88%
    04:00 0°C° 0.9 mm 13 m/s 748 mmHg 87%
    05:00 0°C° 0.9 mm 13 m/s 747 mmHg 86%
    06:00 0°C° 1.5 mm 13 m/s 747 mmHg 84%
    07:00 -1°C° 1.5 mm 13 m/s 747 mmHg 83%
    08:00 -2°C° 1.5 mm 12 m/s 746 mmHg 81%
    09:00 -2°C° 0.3 mm 13 m/s 747 mmHg 76%
    10:00 -4°C° 0.3 mm 15 m/s 747 mmHg 71%
    11:00 -4°C° 0.3 mm 16 m/s 747 mmHg 66%
    12:00 -5°C° 0.6 mm 15 m/s 748 mmHg 72%
    13:00 -6°C° 0.6 mm 14 m/s 748 mmHg 78%
    14:00 -6°C° 0.6 mm 13 m/s 748 mmHg 84%
    15:00 -6°C° 0.3 mm 14 m/s 748 mmHg 81%
    16:00 -6°C° 0.3 mm 14 m/s 748 mmHg 77%
    17:00 -6°C° 0.3 mm 14 m/s 748 mmHg 73%
    18:00 -8°C° 0.4 mm 15 m/s 748 mmHg 74%
    19:00 -8°C° 0.4 mm 15 m/s 748 mmHg 74%
    20:00 -8°C° 0.4 mm 15 m/s 748 mmHg 74%
    21:00 -8°C° 0.3 mm 15 m/s 749 mmHg 74%
    22:00 -8°C° 0.3 mm 15 m/s 749 mmHg 74%
    23:00 -9°C° 0.3 mm 15 m/s 749 mmHg 74%

    Poimâine, 28 Martie, Joi

    Timp Temperatura Precipitaţii Vânt Presiune Umiditate
    00:00 -8°C° 0.3 mm 16 m/s 749 mmHg 73%
    01:00 -8°C° 0.3 mm 16 m/s 749 mmHg 73%
    02:00 -8°C° 0.3 mm 16 m/s 749 mmHg 73%
    03:00 -8°C° 0.3 mm 15 m/s 749 mmHg 74%
    04:00 -8°C° 0.3 mm 14 m/s 749 mmHg 75%
    05:00 -7°C° 0.3 mm 13 m/s 748 mmHg 76%
    06:00 -6°C° 0.2 mm 11 m/s 748 mmHg 77%
    07:00 -5°C° 0.2 mm 9 m/s 748 mmHg 78%
    08:00 -4°C° 0.2 mm 7 m/s 747 mmHg 79%
    09:00 -4°C° 0.3 mm 7 m/s 747 mmHg 82%
    10:00 -4°C° 0.3 mm 6 m/s 746 mmHg 85%
    11:00 -4°C° 0.3 mm 5 m/s 746 mmHg 88%
    12:00 -4°C° 1.2 mm 6 m/s 745 mmHg 91%
    13:00 -4°C° 1.2 mm 7 m/s 745 mmHg 93%
    14:00 -4°C° 1.2 mm 7 m/s 744 mmHg 96%
    15:00 -5°C° 0.7 mm 8 m/s 744 mmHg 89%
    16:00 -5°C° 0.7 mm 8 m/s 744 mmHg 82%
    17:00 -5°C° 0.7 mm 9 m/s 744 mmHg 75%
    18:00 -6°C° 0.3 mm 8 m/s 744 mmHg 76%
    19:00 -6°C° 0.3 mm 7 m/s 745 mmHg 76%
    20:00 -5°C° 0.3 mm 6 m/s 745 mmHg 77%
    21:00 -6°C° 0.2 mm 6 m/s 745 mmHg 76%
    22:00 -6°C° 0.2 mm 6 m/s 745 mmHg 75%
    23:00 -6°C° 0.2 mm 6 m/s 745 mmHg 75%

    29 Martie, Vineri

    Timp Temperatura Precipitaţii Vânt Presiune Umiditate
    00:00 -6°C° 0.2 mm 6 m/s 745 mmHg 75%
    01:00 -6°C° 0.2 mm 6 m/s 745 mmHg 76%
    02:00 -5°C° 0.2 mm 6 m/s 745 mmHg 77%
    03:00 -6°C° 0 mm 5 m/s 746 mmHg 75%
    04:00 -7°C° 0 mm 4 m/s 746 mmHg 74%
    05:00 -7°C° 0 mm 3 m/s 747 mmHg 72%
    06:00 -6°C° 0.1 mm 3 m/s 748 mmHg 73%
    07:00 -5°C° 0.1 mm 3 m/s 749 mmHg 74%
    08:00 -5°C° 0.1 mm 3 m/s 750 mmHg 75%
    09:00 -5°C° 0.2 mm 4 m/s 751 mmHg 78%
    10:00 -5°C° 0.2 mm 5 m/s 752 mmHg 80%
    11:00 -5°C° 0.2 mm 5 m/s 753 mmHg 82%
    12:00 -5°C° 0 mm 5 m/s 754 mmHg 80%
    13:00 -6°C° 0 mm 5 m/s 755 mmHg 78%
    14:00 -6°C° 0 mm 6 m/s 756 mmHg 76%
    15:00 -6°C° 0 mm 6 m/s 757 mmHg 77%
    16:00 -8°C° 0 mm 6 m/s 758 mmHg 77%
    17:00 -8°C° 0 mm 6 m/s 759 mmHg 78%
    18:00 -10°C° 0 mm 5 m/s 760 mmHg 80%
    19:00 -10°C° 0 mm 4 m/s 762 mmHg 82%
    20:00 -12°C° 0 mm 4 m/s 763 mmHg 84%
    21:00 -12°C° 0 mm 3 m/s 764 mmHg 84%
    22:00 -12°C° 0 mm 2 m/s 765 mmHg 84%
    23:00 -10°C° 0 mm 1 m/s 766 mmHg 85%

    30 Martie, Sâmbătă

    Timp Temperatura Precipitaţii Vânt Presiune Umiditate
    00:00 -10°C° 0 mm 1 m/s 767 mmHg 84%
    01:00 -10°C° 0 mm 1 m/s 767 mmHg 83%
    02:00 -10°C° 0 mm 1 m/s 768 mmHg 82%
    03:00 -12°C° 0 mm 2 m/s 768 mmHg 79%
    04:00 -12°C° 0 mm 2 m/s 769 mmHg 77%
    05:00 -12°C° 0 mm 2 m/s 769 mmHg 74%
    06:00 -12°C° 0 mm 3 m/s 769 mmHg 73%
    07:00 -10°C° 0 mm 3 m/s 769 mmHg 71%
    08:00 -10°C° 0 mm 4 m/s 769 mmHg 70%
    09:00 -9°C° 0 mm 4 m/s 769 mmHg 70%
    10:00 -8°C° 0 mm 5 m/s 769 mmHg 70%
    11:00 -6°C° 0 mm 6 m/s 769 mmHg 71%
    12:00 -6°C° 0 mm 6 m/s 769 mmHg 73%
    13:00 -5°C° 0 mm 6 m/s 768 mmHg 76%
    14:00 -6°C° 0 mm 7 m/s 768 mmHg 79%
    15:00 -4°C° 0.2 mm 7 m/s 767 mmHg 82%
    16:00 -4°C° 0.2 mm 7 m/s 766 mmHg 85%
    17:00 -3°C° 0.2 mm 7 m/s 765 mmHg 88%
    18:00 -2°C° 0.7 mm 7 m/s 764 mmHg 89%
    19:00 -1°C° 0.7 mm 8 m/s 763 mmHg 89%
    20:00 0°C° 0.7 mm 8 m/s 762 mmHg 90%
    21:00 0°C° 0.7 mm 8 m/s 762 mmHg 90%
    22:00 0°C° 0.7 mm 8 m/s 761 mmHg 90%
    23:00 0°C° 0.7 mm 9 m/s 760 mmHg 89%

    31 Martie, Duminică

    Timp Temperatura Precipitaţii Vânt Presiune Umiditate
    00:00 0°C° 0.9 mm 9 m/s 759 mmHg 90%
    01:00 0°C° 0.9 mm 9 m/s 758 mmHg 90%
    02:00 0°C° 0.9 mm 9 m/s 757 mmHg 90%
    03:00 0°C° 0.5 mm 9 m/s 756 mmHg 87%
    04:00 0°C° 0.5 mm 9 m/s 756 mmHg 83%
    05:00 0°C° 0.5 mm 9 m/s 755 mmHg 80%
    06:00 -2°C° 0.3 mm 10 m/s 755 mmHg 79%
    07:00 -2°C° 0.3 mm 10 m/s 755 mmHg 78%
    08:00 -3°C° 0.3 mm 10 m/s 754 mmHg 77%
    09:00 -3°C° 0.2 mm 10 m/s 754 mmHg 78%
    10:00 -3°C° 0.2 mm 10 m/s 754 mmHg 78%
    11:00 -3°C° 0.2 mm 10 m/s 754 mmHg 79%
    12:00 -3°C° 0.3 mm 10 m/s 753 mmHg 78%
    13:00 -3°C° 0.3 mm 10 m/s 753 mmHg 78%
    14:00 -3°C° 0.3 mm 10 m/s 752 mmHg 77%
    15:00 -3°C° 0.3 mm 9 m/s 752 mmHg 77%
    16:00 -4°C° 0.3 mm 9 m/s 751 mmHg 78%
    17:00 -4°C° 0.3 mm 9 m/s 751 mmHg 78%
    18:00 -4°C° 0.2 mm 8 m/s 751 mmHg 78%
    19:00 -5°C° 0.2 mm 8 m/s 751 mmHg 77%
    20:00 -5°C° 0.2 mm 8 m/s 751 mmHg 76%
    21:00 -6°C° 0.2 mm 7 m/s 751 mmHg 76%
    22:00 -6°C° 0.2 mm 6 m/s 750 mmHg 76%
    23:00 -6°C° 0.2 mm 6 m/s 750 mmHg 75%
    Arată mai mult